{"data":{"norad_id":60468,"intl_designator":"2024-149A","name":"TRANSPORTER-11 OBJECT A","alt_names":[],"object_type":"PAYLOAD","status":"ACTIVE","operator":null,"country":"TBD","launch_date":"2024-08-16","launch_site_code":"AFWTR","launch_vehicle":null,"mission":null,"orbit_class":"UNKNOWN","rcs_meters":null,"size_class":null,"mass_kg":null,"dimensions":null,"purposes":[],"wikipedia_slug":null,"has_3d_model":false,"image_url":null,"decayed_at":null,"tle_current":{"epoch":"2026-05-25T02:34:40.027872Z","epoch_age_seconds":61876,"freshness":"FRESH","line1":"1 60468U 24149A   26145.10740773  .00007764  00000+0  25008-3 0  9992","line2":"2 60468  97.3731 225.1163 0001836 325.3040  34.8081 15.32473099 98522","mean_motion":15.32473099,"eccentricity":0.0001836,"inclination_deg":97.3731,"raan_deg":225.1163,"arg_perigee_deg":325.304,"mean_anomaly_deg":34.8081,"bstar":0.00025008,"rev_number":9852,"period_min":93.965760373847,"perigee_km":467.17936535076,"apogee_km":469.69342710185,"semimajor_km":6846.5733962263,"source":"CELESTRAK","updated_at":"2026-05-25T13:38:02.087258Z"}}}